Location: Asheville, NC
(35.6000°N, 82.5500°W)
Time: 20:42:24
(UTC-04:00)

AO-73 - Visible Passes

Search period start: 17 July 2018 00:00
Search period end: 27 July 2018 00:00
Orbit: 582 x 665 km, 97.6° (Epoch: 16 July)

Date Brightness Start Highest point End Pass type
(mag) Time Alt. Az. Time Alt. Az. Time Alt. Az.
18 Jul ? 21:17:28 10° SSW 21:20:50 24° W 21:24:12 10° NW visible
19 Jul ? 21:37:04 10° SW 21:39:23 15° W 21:41:42 10° WNW visible
23 Jul ? 21:13:18 10° SSW 21:16:46 26° W 21:20:15 10° NW visible
24 Jul ? 21:32:45 10° SW 21:35:18 16° W 21:37:53 10° NW visible
